sat.trackr.live / text

‹ back to catalog

STARLINK-1522

NORAD 46027 · 2020-055A

PAYLOAD ACTIVE UNKNOWN

§ Identity

Operator
Country
US
Launch date
2020-08-07
Launch site
AFETR
Launch vehicle
Mass (kg)
RCS (m²)

Purposes: comms

External: N2YO · Heavens-Above · Gunter

§ Orbital elements

Epoch: 2026-09-19T18:51:51.927552Z

Period
94.92 min
Inclination
53.0625°
Eccentricity
0.0002219
Mean motion
15.17103942 rev/d
Perigee alt
513.1 km
Apogee alt
516.1 km
Semi-major
6,892.7 km
B*
8.2382e-4
RAAN
325.9919°
Arg perigee
8.2469°
Mean anomaly
351.8561°
Rev number
33,827

§ Raw data

STARLINK-15221 46027U 20055A   26262.78601768  .00016250  00000+0  82382-3 0  99912 46027  53.0625 325.9919 0002219   8.2469 351.8561 15.17103942338278

JSON: /api/v1/satellites/46027 · /tle

For live sub-satellite position, see the globe view (requires WebGL).

§ Visibility from observer

Set your observer location to see the next 7 days of passes ≥ 10°. The values pass through the URL so the page stays shareable.

No JS? Fill the form by hand. The geolocation button needs JavaScript.